Weather History for Blackpool, United Kingdom

Change the Weather History Date:

Monday, February 18, 2013

  Actual Average Record
Temperature  
Mean Temperature 40 °F -  
Max Temperature 46 °F 46 °F 50 °F (2007)
Min Temperature 33 °F 37 °F 24 °F (2008)
Degree Days  
Heating Degree Days 25    
Moisture  
Dew Point 34 °F    
Average Humidity 77    
Maximum Humidity 93    
Minimum Humidity 51    
Precipitation  
Precipitation 0.00 in - - ()
Sea Level Pressure  
Sea Level Pressure 30.11 in    
Wind  
Wind Speed 10 mph ()    
Max Wind Speed 18 mph    
Max Gust Speed -    
Visibility 5.3 miles    
Events      
Averages and records for this station are not official NWS values.
T = Trace of Precipitation, MM = Missing Value Source: Averaged Metar Reports

Daily Weather History Graph

Daily Weather History Graph

Search for Another Location

Airport:

Trip Planner

Search our weather history database for the weather conditions in past years. The results will help you decide how hot, cold, wet, or windy it might be!

Date:

Astronomy

Feb. 18, 2013 Rise Set
Actual Time 7:24 AM GMT 5:28 PM GMT
Civil Twilight 6:48 AM GMT 6:04 PM GMT
Nautical Twilight 6:07 AM GMT 6:45 PM GMT
Astronomical Twilight 5:27 AM GMT 7:26 PM GMT
Moon 10:37 AM GMT (2/18) 2:15 AM GMT (2/18)
Length of Visible Light 11h 15m
Length of Day
10h 03m
First Quarter, 56% of the Moon is Illuminated
Feb 18
First Quarter
Feb 25
Full
Mar 4
Last Quarter
Mar 11
New
Mar 19
First Quarter

Hourly Weather History & Observations

Time (GMT) Temp. Windchill Dew Point Humidity Pressure Visibility Wind Dir Wind Speed Gust Speed Precip Events Conditions
2:50 AM 36 °F - 32 °F 81%  in - SE 15.0 mph - -  
5:50 AM 34 °F - 31 °F 85%  in - ESE 10.4 mph - -  
5:50 AM 35.6 °F 29.2 °F 33.8 °F 93% 30.09 in 6.2 mi ESE 8.1 mph - N/A   Mostly Cloudy
6:20 AM 35.6 °F 29.9 °F 32.0 °F 87% 30.09 in 6.2 mi ESE 6.9 mph - N/A   Mostly Cloudy
6:50 AM 35.6 °F 28.6 °F 33.8 °F 93% 30.09 in 6.2 mi ESE 9.2 mph - N/A   Mostly Cloudy
7:20 AM 35.6 °F 28.0 °F 33.8 °F 93% 30.09 in 6.2 mi ESE 10.4 mph - N/A   Mostly Cloudy
7:50 AM 35.6 °F 29.9 °F 33.8 °F 93% 30.09 in 5.0 mi ESE 6.9 mph - N/A   Mostly Cloudy
8:20 AM 35.6 °F 27.5 °F 33.8 °F 93% 30.12 in 5.0 mi ESE 11.5 mph - N/A   Mostly Cloudy
8:50 AM 37 °F - 33 °F 78%  in - ESE 16.1 mph - -  
8:50 AM 37.4 °F 28.5 °F 33.8 °F 87% 30.12 in 5.0 mi SE 15.0 mph - N/A   Mostly Cloudy
9:20 AM 37.4 °F 28.5 °F 33.8 °F 87% 30.12 in 5.0 mi SE 15.0 mph - N/A   Scattered Clouds
9:50 AM 39.2 °F 29.8 °F 33.8 °F 81% 30.12 in 4.3 mi SE 18.4 mph - N/A   Scattered Clouds
10:20 AM 39.2 °F 29.8 °F 35.6 °F 87% 30.15 in 4.3 mi SE 18.4 mph - N/A   Unknown
10:50 AM 41.0 °F 32.5 °F 33.8 °F 76% 30.15 in 4.3 mi SE 17.3 mph - N/A   Unknown
11:20 AM 41.0 °F 32.5 °F 35.6 °F 81% 30.12 in 4.3 mi SE 17.3 mph - N/A   Unknown
11:50 AM 43 °F - 34 °F 60%  in - SE 15.0 mph - -  
11:50 AM 42.8 °F 35.4 °F 35.6 °F 76% 30.12 in - SSE 15.0 mph - N/A   Clear
12:20 PM 44.6 °F 38.1 °F 35.6 °F 71% 30.12 in - SE 13.8 mph - N/A   Clear
12:50 PM 44.6 °F 38.1 °F 35.6 °F 71% 30.12 in - SSE 13.8 mph - N/A   Clear
1:20 PM 46.4 °F 40.7 °F 35.6 °F 66% 30.12 in - SE 12.7 mph - N/A   Clear
1:50 PM 46.4 °F 40.4 °F 35.6 °F 66% 30.12 in - SSE 13.8 mph - N/A   Clear
2:20 PM 46.4 °F 40.7 °F 35.6 °F 66% 30.09 in - SE 12.7 mph - N/A   Clear
2:50 PM 46 °F - 34 °F 51%  in - SE 10.4 mph - -  
2:50 PM 46.4 °F 41.5 °F 35.6 °F 66% 30.09 in - SE 10.4 mph - N/A   Clear
3:20 PM 46.4 °F 40.7 °F 33.8 °F 62% 30.09 in - SE 12.7 mph - N/A   Clear
3:50 PM 46.4 °F 41.9 °F 33.8 °F 62% 30.09 in - SE 9.2 mph - N/A   Clear
4:20 PM 46.4 °F 42.9 °F 33.8 °F 62% 30.09 in - SE 6.9 mph - N/A   Clear
4:50 PM 44.6 °F 40.7 °F 33.8 °F 66% 30.09 in - SE 6.9 mph - N/A   Clear
5:20 PM 42.8 °F 38.0 °F 33.8 °F 70% 30.09 in - SE 8.1 mph - N/A   Clear
5:50 PM 41 °F - 33 °F 64%  in - SE 8.1 mph - -  
5:50 PM 41.0 °F 35.2 °F 33.8 °F 76% 30.09 in - SE 9.2 mph - N/A   Clear
6:20 PM 39.2 °F 33.6 °F 32.0 °F 75% 30.12 in - SSE 8.1 mph - N/A   Clear
6:50 PM 37.4 °F 32.1 °F 32.0 °F 81% 30.12 in 5.6 mi East 6.9 mph - N/A   Unknown
7:20 PM 35.6 °F 30.7 °F 30.2 °F 81% 30.12 in 5.6 mi SE 5.8 mph - N/A   Unknown
7:50 PM 35.6 °F 31.7 °F 32.0 °F 87% 30.12 in 5.6 mi ESE 4.6 mph - N/A   Unknown
8:20 PM 35.6 °F 30.7 °F 32.0 °F 87% 30.12 in 5.6 mi ESE 5.8 mph - N/A   Unknown
8:50 PM 34 °F - 31 °F 84%  in - East 6.9 mph - -  
8:50 PM 35.6 °F 29.9 °F 32.0 °F 87% 30.12 in 5.6 mi East 6.9 mph - N/A   Unknown
11:50 PM 33 °F - 30 °F 86%  in - East 9.2 mph - -